User: anonymous   Login
Location: Newark
(43.6486°N, 79.3853°W)
Time: 17:55:00
(UTC+00:00)
Language:

STARLINK-1288 - Orbit

View from above orbital plane
View from above orbital plane
View from above satellite
View from above satellite

Ground track
Ground track

The orbit data is extracted from the following two-line orbital elements,

1 45372U 20019N   20185.50001157 -.00033904  00000-0 -23171-2 0  9995
2 45372  53.0004 122.5067 0001583  90.5633  36.9579 15.05607641 16967
Epoch (UTC): 03 July 2020 12:00:01
Eccentricity: 0.0001583
inclination: 53.0004°
perigee height: 548 km
apogee height: 551 km
right ascension of ascending node: 122.5067°
argument of perigee: 90.5633°
revolutions per day: 15.05607641
mean anomaly at epoch: 36.9579°
orbit number at epoch: 1696

The dashed part of the orbit path shows where the satellite is in the earth's shadow,  

DLR